When you browse on this site, cookies collect data to enhance your experience and personalize the content and advertising you see.
Visit our Privacy Policy to learn more. By continuing to use the site, you agree to this use of cookies and data.
EN

Hourly Weather Viedma

Today, 7 July, Tuesday

Time Temperature Precipitation Wind Pressure Humidity
00:00 +4°C° 0 mm 1 mps 766 mmHg 72%
01:00 +3°C° 0 mm 2 mps 766 mmHg 73%
02:00 +2°C° 0 mm 2 mps 766 mmHg 73%
03:00 +2°C° 0 mm 2 mps 766 mmHg 75%
04:00 +2°C° 0 mm 2 mps 766 mmHg 76%
05:00 +2°C° 0 mm 2 mps 765 mmHg 77%
06:00 +2°C° 0 mm 2 mps 765 mmHg 79%
07:00 +2°C° 0 mm 2 mps 765 mmHg 80%
08:00 +1°C° 0 mm 3 mps 765 mmHg 82%
09:00 +3°C° 0 mm 3 mps 765 mmHg 75%
10:00 +4°C° 0 mm 4 mps 765 mmHg 68%
11:00 +6°C° 0 mm 5 mps 765 mmHg 62%
12:00 +7°C° 0 mm 5 mps 765 mmHg 60%
13:00 +7°C° 0 mm 5 mps 764 mmHg 58%
14:00 +8°C° 0 mm 5 mps 763 mmHg 56%
15:00 +7°C° 0 mm 5 mps 763 mmHg 59%
16:00 +6°C° 0 mm 4 mps 762 mmHg 62%
17:00 +5°C° 0 mm 4 mps 762 mmHg 66%
18:00 +5°C° 0 mm 4 mps 762 mmHg 67%
19:00 +5°C° 0 mm 5 mps 762 mmHg 69%
20:00 +4°C° 0 mm 6 mps 762 mmHg 70%
21:00 +4°C° 0 mm 6 mps 761 mmHg 69%
22:00 +4°C° 0 mm 6 mps 761 mmHg 67%
23:00 +4°C° 0 mm 6 mps 761 mmHg 66%

Tomorrow, 8 July, Wednesday

Time Temperature Precipitation Wind Pressure Humidity
00:00 +4°C° 0 mm 6 mps 760 mmHg 70%
01:00 +3°C° 0 mm 7 mps 760 mmHg 74%
02:00 +3°C° 0 mm 7 mps 759 mmHg 77%
03:00 +3°C° 0 mm 7 mps 759 mmHg 78%
04:00 +3°C° 0 mm 7 mps 758 mmHg 80%
05:00 +3°C° 0 mm 7 mps 757 mmHg 81%
06:00 +3°C° 0.4 mm 7 mps 757 mmHg 82%
07:00 +3°C° 0.4 mm 7 mps 757 mmHg 84%
08:00 +2°C° 0.4 mm 8 mps 757 mmHg 86%
09:00 +2°C° 0.8 mm 8 mps 757 mmHg 85%
10:00 +4°C° 0.8 mm 8 mps 756 mmHg 83%
11:00 +4°C° 0.8 mm 8 mps 756 mmHg 82%
12:00 +5°C° 0 mm 8 mps 756 mmHg 75%
13:00 +8°C° 0 mm 7 mps 755 mmHg 67%
14:00 +9°C° 0 mm 6 mps 755 mmHg 59%
15:00 +8°C° 0 mm 5 mps 755 mmHg 62%
16:00 +8°C° 0 mm 4 mps 755 mmHg 64%
17:00 +8°C° 0 mm 3 mps 755 mmHg 66%
18:00 +7°C° 0 mm 3 mps 756 mmHg 65%
19:00 +7°C° 0 mm 3 mps 756 mmHg 63%
20:00 +5°C° 0 mm 4 mps 757 mmHg 61%
21:00 +5°C° 0 mm 4 mps 757 mmHg 62%
22:00 +5°C° 0 mm 4 mps 757 mmHg 62%
23:00 +5°C° 0 mm 5 mps 757 mmHg 62%

Day after tomorrow, 9 July, Thursday

Time Temperature Precipitation Wind Pressure Humidity
00:00 +4°C° 0 mm 4 mps 757 mmHg 64%
01:00 +4°C° 0 mm 4 mps 757 mmHg 66%
02:00 +4°C° 0 mm 4 mps 757 mmHg 67%
03:00 +3°C° 0 mm 4 mps 757 mmHg 68%
04:00 +3°C° 0 mm 4 mps 757 mmHg 68%
05:00 +1°C° 0 mm 4 mps 757 mmHg 69%
06:00 +1°C° 0 mm 4 mps 757 mmHg 69%
07:00 +1°C° 0 mm 4 mps 757 mmHg 69%
08:00 0°C° 0 mm 4 mps 757 mmHg 69%
09:00 +2°C° 0 mm 5 mps 757 mmHg 63%
10:00 +4°C° 0 mm 6 mps 757 mmHg 57%
11:00 +7°C° 0 mm 6 mps 757 mmHg 52%
12:00 +8°C° 0 mm 7 mps 756 mmHg 49%
13:00 +9°C° 0 mm 7 mps 755 mmHg 46%
14:00 +10°C° 0 mm 8 mps 754 mmHg 43%
15:00 +9°C° 0 mm 8 mps 754 mmHg 51%
16:00 +8°C° 0 mm 7 mps 754 mmHg 59%
17:00 +6°C° 0 mm 7 mps 754 mmHg 67%
18:00 +7°C° 0.5 mm 6 mps 753 mmHg 71%
19:00 +6°C° 0.5 mm 5 mps 753 mmHg 76%
20:00 +6°C° 0.5 mm 4 mps 752 mmHg 81%
21:00 +6°C° 0 mm 5 mps 752 mmHg 78%
22:00 +5°C° 0 mm 6 mps 751 mmHg 76%
23:00 +5°C° 0 mm 6 mps 750 mmHg 73%

10 July, Friday

Time Temperature Precipitation Wind Pressure Humidity
00:00 +5°C° 0 mm 6 mps 751 mmHg 72%
01:00 +6°C° 0 mm 5 mps 751 mmHg 71%
02:00 +5°C° 0 mm 5 mps 751 mmHg 70%
03:00 +5°C° 0 mm 5 mps 752 mmHg 74%
04:00 +5°C° 0 mm 5 mps 752 mmHg 78%
05:00 +5°C° 0 mm 5 mps 753 mmHg 82%
06:00 +5°C° 0 mm 5 mps 754 mmHg 81%
07:00 +5°C° 0 mm 5 mps 755 mmHg 81%
08:00 +5°C° 0 mm 5 mps 756 mmHg 80%
09:00 +5°C° 0 mm 6 mps 756 mmHg 72%
10:00 +7°C° 0 mm 6 mps 757 mmHg 64%
11:00 +8°C° 0 mm 6 mps 757 mmHg 56%
12:00 +8°C° 0 mm 6 mps 757 mmHg 53%
13:00 +8°C° 0 mm 6 mps 757 mmHg 50%
14:00 +8°C° 0 mm 6 mps 757 mmHg 46%
15:00 +7°C° 0 mm 5 mps 757 mmHg 49%
16:00 +6°C° 0 mm 4 mps 757 mmHg 52%
17:00 +5°C° 0 mm 3 mps 757 mmHg 55%
18:00 +4°C° 0 mm 3 mps 756 mmHg 55%
19:00 +4°C° 0 mm 3 mps 756 mmHg 55%
20:00 +4°C° 0 mm 3 mps 756 mmHg 55%
21:00 +4°C° 0 mm 3 mps 755 mmHg 57%
22:00 +4°C° 0 mm 3 mps 754 mmHg 58%
23:00 +4°C° 0 mm 4 mps 753 mmHg 60%

11 July, Saturday

Time Temperature Precipitation Wind Pressure Humidity
00:00 +3°C° 1.2 mm 4 mps 752 mmHg 71%
01:00 +1°C° 1.2 mm 5 mps 751 mmHg 83%
02:00 -1°C° 1.2 mm 6 mps 750 mmHg 94%
03:00 +1°C° 2.1 mm 6 mps 748 mmHg 93%
04:00 +3°C° 2.1 mm 7 mps 746 mmHg 92%
05:00 +4°C° 2.1 mm 7 mps 745 mmHg 92%
06:00 +6°C° 0 mm 8 mps 744 mmHg 84%
07:00 +7°C° 0 mm 10 mps 743 mmHg 77%
08:00 +8°C° 0 mm 11 mps 742 mmHg 70%
09:00 +8°C° 0 mm 11 mps 742 mmHg 62%
10:00 +8°C° 0 mm 12 mps 742 mmHg 53%
11:00 +9°C° 0 mm 13 mps 743 mmHg 44%
12:00 +8°C° 0 mm 14 mps 743 mmHg 44%
13:00 +8°C° 0 mm 15 mps 743 mmHg 44%
14:00 +7°C° 0 mm 16 mps 743 mmHg 44%
15:00 +6°C° 0 mm 15 mps 744 mmHg 47%
16:00 +5°C° 0 mm 14 mps 745 mmHg 50%
17:00 +4°C° 0 mm 13 mps 746 mmHg 54%
18:00 +4°C° 0 mm 12 mps 748 mmHg 59%
19:00 +3°C° 0 mm 11 mps 749 mmHg 64%
20:00 +3°C° 0 mm 10 mps 750 mmHg 69%
21:00 +3°C° 0.1 mm 10 mps 751 mmHg 73%
22:00 +2°C° 0.1 mm 9 mps 752 mmHg 76%
23:00 +2°C° 0.1 mm 8 mps 753 mmHg 80%

12 July, Sunday

Time Temperature Precipitation Wind Pressure Humidity
00:00 +2°C° 0.1 mm 8 mps 753 mmHg 80%
01:00 +3°C° 0.1 mm 7 mps 754 mmHg 80%
02:00 +3°C° 0.1 mm 7 mps 754 mmHg 80%
03:00 +3°C° 0.1 mm 7 mps 755 mmHg 77%
04:00 +3°C° 0.1 mm 7 mps 755 mmHg 74%
05:00 +3°C° 0.1 mm 7 mps 755 mmHg 71%
06:00 +3°C° 0 mm 7 mps 755 mmHg 71%
07:00 +2°C° 0 mm 6 mps 756 mmHg 70%
08:00 +2°C° 0 mm 6 mps 756 mmHg 70%
09:00 +3°C° 0 mm 6 mps 756 mmHg 62%
10:00 +4°C° 0 mm 7 mps 756 mmHg 54%
11:00 +6°C° 0 mm 8 mps 757 mmHg 47%
12:00 +6°C° 0 mm 8 mps 756 mmHg 45%
13:00 +6°C° 0 mm 8 mps 756 mmHg 44%
14:00 +7°C° 0 mm 8 mps 756 mmHg 43%
15:00 +6°C° 0 mm 7 mps 756 mmHg 45%
16:00 +6°C° 0 mm 5 mps 756 mmHg 46%
17:00 +5°C° 0 mm 4 mps 756 mmHg 48%
18:00 +5°C° 0 mm 4 mps 756 mmHg 50%
19:00 +4°C° 0 mm 4 mps 756 mmHg 53%
20:00 +4°C° 0 mm 4 mps 756 mmHg 55%
21:00 +3°C° 0 mm 5 mps 756 mmHg 57%
22:00 +3°C° 0 mm 5 mps 756 mmHg 59%
23:00 +3°C° 0 mm 5 mps 756 mmHg 61%
Show more